TimeCDT,TemperatureF,Dew PointF,Humidity,Sea Level PressureIn,VisibilityMPH,Wind Direction,Wind SpeedMPH,Gust SpeedMPH,PrecipitationIn,Events,Conditions,WindDirDegrees,DateUTC
12:15 AM,53.8,48.0,81,30.01,10.0,SSW,4.6,-,N/A,,Clear,210,2012-10-04 05:15:00
12:35 AM,54.3,48.6,81,30.00,10.0,SSW,4.6,-,N/A,,Clear,210,2012-10-04 05:35:00
12:55 AM,55.9,49.3,78,30.00,10.0,SSW,3.5,-,N/A,,Clear,200,2012-10-04 05:55:00
1:15 AM,53.8,48.7,83,30.00,10.0,South,3.5,-,N/A,,Clear,190,2012-10-04 06:15:00
1:35 AM,56.5,49.6,78,30.00,10.0,SSW,4.6,-,N/A,,Clear,210,2012-10-04 06:35:00
1:55 AM,56.3,49.8,79,30.00,10.0,SW,4.6,-,N/A,,Clear,220,2012-10-04 06:55:00
2:15 AM,55.8,49.6,80,29.99,10.0,SSW,5.8,-,N/A,,Clear,210,2012-10-04 07:15:00
2:35 AM,56.1,49.6,79,29.99,10.0,SSW,6.9,-,N/A,,Clear,210,2012-10-04 07:35:00
2:55 AM,57.2,49.6,76,29.98,10.0,SW,9.2,-,N/A,,Clear,220,2012-10-04 07:55:00
3:15 AM,57.2,49.5,75,29.98,10.0,SW,9.2,-,N/A,,Clear,220,2012-10-04 08:15:00
3:35 AM,57.2,49.5,75,29.98,10.0,SW,8.1,-,N/A,,Clear,220,2012-10-04 08:35:00
3:55 AM,56.7,49.5,77,29.98,10.0,SW,9.2,-,N/A,,Clear,220,2012-10-04 08:55:00
4:15 AM,56.7,49.3,76,29.97,10.0,SW,9.2,16.1,N/A,,Clear,220,2012-10-04 09:15:00
4:35 AM,56.7,49.3,76,29.97,10.0,SSW,9.2,-,N/A,,Clear,210,2012-10-04 09:35:00
4:55 AM,56.8,49.3,76,29.98,10.0,SSW,9.2,-,N/A,,Clear,210,2012-10-04 09:55:00
5:15 AM,56.3,49.1,77,29.97,10.0,SSW,9.2,-,N/A,,Clear,210,2012-10-04 10:15:00
5:35 AM,56.5,49.3,77,29.97,10.0,SSW,11.5,16.1,N/A,,Clear,210,2012-10-04 10:35:00
5:55 AM,56.5,49.5,77,29.97,10.0,SSW,11.5,19.6,N/A,,Clear,210,2012-10-04 10:55:00
6:15 AM,55.6,49.3,79,29.97,10.0,SW,10.4,-,N/A,,Clear,220,2012-10-04 11:15:00
6:35 AM,55.2,49.1,80,29.97,10.0,SSW,8.1,-,N/A,,Clear,210,2012-10-04 11:35:00
6:55 AM,55.0,49.3,81,29.97,10.0,SW,8.1,-,N/A,,Clear,220,2012-10-04 11:55:00
7:15 AM,54.9,49.5,82,29.96,10.0,SSW,11.5,-,N/A,,Clear,210,2012-10-04 12:15:00
7:35 AM,55.6,49.6,80,29.97,10.0,SSW,10.4,-,N/A,,Clear,210,2012-10-04 12:35:00
7:55 AM,56.3,50.0,79,29.96,10.0,SSW,6.9,-,N/A,,Scattered Clouds,200,2012-10-04 12:55:00
8:15 AM,57.2,49.6,76,29.96,10.0,SSW,6.9,-,N/A,,Scattered Clouds,210,2012-10-04 13:15:00
8:35 AM,59.0,50.0,72,29.96,10.0,SW,8.1,-,N/A,,Clear,220,2012-10-04 13:35:00
8:55 AM,61.0,50.2,68,29.95,10.0,SSW,6.9,-,N/A,,Clear,210,2012-10-04 13:55:00
9:15 AM,63.3,50.2,62,29.96,10.0,SW,9.2,-,N/A,,Clear,220,2012-10-04 14:15:00
9:35 AM,66.2,49.3,54,29.96,10.0,WSW,15.0,-,N/A,,Clear,250,2012-10-04 14:35:00
9:55 AM,65.3,48.6,55,29.96,10.0,SW,11.5,26.5,N/A,,Scattered Clouds,230,2012-10-04 14:55:00
10:15 AM,64.6,48.4,56,29.96,10.0,SW,10.4,-,N/A,,Mostly Cloudy,230,2012-10-04 15:15:00
10:35 AM,64.4,48.7,57,29.96,10.0,WSW,11.5,-,N/A,,Mostly Cloudy,240,2012-10-04 15:35:00
10:55 AM,64.0,48.2,56,29.95,10.0,WSW,10.4,18.4,N/A,,Mostly Cloudy,240,2012-10-04 15:55:00
11:15 AM,63.9,48.4,57,29.94,10.0,WSW,9.2,-,N/A,,Scattered Clouds,250,2012-10-04 16:15:00
11:35 AM,62.2,48.9,62,29.95,10.0,WSW,8.1,-,N/A,,Scattered Clouds,240,2012-10-04 16:35:00
11:55 AM,64.6,48.2,55,29.95,10.0,WSW,8.1,-,N/A,,Mostly Cloudy,240,2012-10-04 16:55:00
12:15 PM,65.1,45.5,49,29.95,10.0,SW,9.2,16.1,N/A,,Scattered Clouds,230,2012-10-04 17:15:00
12:35 PM,65.1,43.3,45,29.98,10.0,WSW,12.7,20.7,N/A,,Mostly Cloudy,250,2012-10-04 17:35:00
12:55 PM,61.2,42.6,51,29.98,10.0,SW,13.8,19.6,N/A,,Mostly Cloudy,220,2012-10-04 17:55:00
1:35 PM,58.1,42.6,56,30.00,10.0,WSW,15.0,18.4,N/A,,Overcast,240,2012-10-04 18:35:00
1:55 PM,58.1,42.6,56,30.00,10.0,WSW,9.2,17.3,N/A,,Overcast,240,2012-10-04 18:55:00
2:15 PM,58.3,42.3,55,29.99,10.0,West,12.7,19.6,N/A,,Overcast,270,2012-10-04 19:15:00
2:35 PM,59.7,41.4,51,29.99,10.0,West,10.4,16.1,N/A,,Overcast,260,2012-10-04 19:35:00
2:55 PM,61.0,40.3,46,29.99,10.0,West,11.5,-,N/A,,Mostly Cloudy,260,2012-10-04 19:55:00
3:15 PM,62.2,39.7,44,29.99,10.0,WSW,9.2,-,N/A,,Scattered Clouds,250,2012-10-04 20:15:00
3:35 PM,62.8,39.0,42,30.00,10.0,West,16.1,20.7,N/A,,Scattered Clouds,260,2012-10-04 20:35:00
3:55 PM,63.7,38.7,40,30.00,10.0,WSW,15.0,-,N/A,,Clear,250,2012-10-04 20:55:00
4:15 PM,64.0,36.9,37,30.00,10.0,West,15.0,21.9,N/A,,Clear,270,2012-10-04 21:15:00
4:35 PM,62.8,36.3,37,30.00,10.0,WSW,17.3,-,N/A,,Scattered Clouds,250,2012-10-04 21:35:00
4:55 PM,62.6,35.1,36,30.01,10.0,WSW,15.0,18.4,N/A,,Mostly Cloudy,250,2012-10-04 21:55:00
5:15 PM,61.7,31.3,32,30.01,10.0,West,15.0,20.7,N/A,,Overcast,280,2012-10-04 22:15:00
5:55 PM,59.7,32.0,35,30.02,10.0,West,16.1,-,N/A,,Overcast,270,2012-10-04 22:55:00
6:15 PM,58.6,31.6,36,30.03,10.0,West,17.3,23.0,N/A,,Overcast,280,2012-10-04 23:15:00
6:35 PM,56.1,32.0,40,30.04,10.0,West,11.5,-,N/A,,Scattered Clouds,270,2012-10-04 23:35:00
6:55 PM,55.4,32.0,41,30.05,10.0,West,10.4,-,N/A,,Clear,270,2012-10-04 23:55:00
7:15 PM,53.2,32.0,44,30.05,10.0,West,6.9,-,N/A,,Clear,270,2012-10-05 00:15:00
7:35 PM,53.8,31.8,43,30.06,10.0,West,16.1,-,N/A,,Clear,270,2012-10-05 00:35:00
7:55 PM,53.1,31.1,43,30.07,10.0,West,11.5,20.7,N/A,,Clear,280,2012-10-05 00:55:00
8:15 PM,51.1,31.3,47,30.08,10.0,West,9.2,-,N/A,,Clear,280,2012-10-05 01:15:00
8:35 PM,50.9,31.3,47,30.08,10.0,West,9.2,-,N/A,,Clear,280,2012-10-05 01:35:00
8:55 PM,50.4,31.3,48,30.09,10.0,WNW,15.0,-,N/A,,Clear,290,2012-10-05 01:55:00
9:15 PM,50.2,30.2,46,30.09,10.0,West,18.4,24.2,N/A,,Clear,280,2012-10-05 02:15:00
9:35 PM,49.5,30.2,48,30.09,10.0,West,11.5,17.3,N/A,,Clear,280,2012-10-05 02:35:00
9:55 PM,48.4,30.4,50,30.09,10.0,WNW,12.7,18.4,N/A,,Clear,290,2012-10-05 02:55:00
10:15 PM,48.2,29.7,49,30.09,10.0,WNW,16.1,20.7,N/A,,Clear,290,2012-10-05 03:15:00
10:35 PM,47.7,30.0,50,30.10,10.0,WNW,12.7,-,N/A,,Clear,290,2012-10-05 03:35:00
10:55 PM,46.9,29.3,50,30.11,10.0,WNW,12.7,20.7,N/A,,Clear,290,2012-10-05 03:55:00
11:15 PM,44.2,30.2,58,30.12,10.0,West,8.1,-,N/A,,Clear,270,2012-10-05 04:15:00
11:35 PM,45.0,29.8,55,30.11,10.0,West,10.4,-,N/A,,Clear,280,2012-10-05 04:35:00
11:55 PM,44.8,29.3,55,30.12,10.0,WNW,10.4,-,N/A,,Clear,290,2012-10-05 04:55:00